• în Republica Moldova
  • Lista ţărilor
  • Pe 7 zile
  • Temperatura apei
  • Hartă satelitară
  • Meteo pe hartă
  • Widget-uri
  • user-avatar
    Intrare

    Meteo pe oră la Brisbane

    Astăzi, 23 Septembrie, Duminică

    Timp Temperatura Precipitaţii Vânt Presiune Umiditate
    00:00 +16°C° 0 mm 1 m/s 767 mmHg 81%
    01:00 +16°C° 0 mm 1 m/s 767 mmHg 83%
    02:00 +15°C° 0 mm 1 m/s 767 mmHg 84%
    03:00 +15°C° 0 mm 1 m/s 767 mmHg 86%
    04:00 +15°C° 0 mm 1 m/s 766 mmHg 86%
    05:00 +16°C° 0 mm 1 m/s 766 mmHg 83%
    06:00 +18°C° 0 mm 1 m/s 767 mmHg 79%
    07:00 +18°C° 0 mm 1 m/s 767 mmHg 76%
    08:00 +22°C° 0 mm 1 m/s 766 mmHg 64%
    09:00 +25°C° 0 mm 1 m/s 766 mmHg 53%
    10:00 +28°C° 0 mm 1 m/s 766 mmHg 41%
    11:00 +29°C° 0 mm 1 m/s 765 mmHg 38%
    12:00 +30°C° 0 mm 2 m/s 765 mmHg 35%
    13:00 +31°C° 0 mm 2 m/s 764 mmHg 32%
    14:00 +30°C° 0 mm 3 m/s 763 mmHg 36%
    15:00 +28°C° 0 mm 3 m/s 763 mmHg 39%
    16:00 +27°C° 0 mm 3 m/s 763 mmHg 44%
    17:00 +25°C° 0 mm 3 m/s 763 mmHg 52%
    18:00 +22°C° 0 mm 3 m/s 763 mmHg 61%
    19:00 +20°C° 0 mm 3 m/s 764 mmHg 69%
    20:00 +19°C° 0 mm 3 m/s 764 mmHg 73%
    21:00 +18°C° 0 mm 2 m/s 765 mmHg 76%
    22:00 +18°C° 0 mm 2 m/s 765 mmHg 79%
    23:00 +18°C° 0 mm 1 m/s 765 mmHg 81%

    Mâine, 24 Septembrie, Luni

    Timp Temperatura Precipitaţii Vânt Presiune Umiditate
    00:00 +18°C° 0 mm 1 m/s 765 mmHg 82%
    01:00 +16°C° 0 mm 1 m/s 765 mmHg 84%
    02:00 +16°C° 0 mm 1 m/s 765 mmHg 85%
    03:00 +16°C° 0 mm 1 m/s 765 mmHg 86%
    04:00 +16°C° 0 mm 1 m/s 765 mmHg 87%
    05:00 +16°C° 0 mm 2 m/s 765 mmHg 84%
    06:00 +17°C° 0 mm 2 m/s 765 mmHg 80%
    07:00 +18°C° 0 mm 2 m/s 766 mmHg 76%
    08:00 +20°C° 0 mm 2 m/s 766 mmHg 66%
    09:00 +23°C° 0 mm 2 m/s 766 mmHg 56%
    10:00 +25°C° 0 mm 3 m/s 766 mmHg 46%
    11:00 +26°C° 0.1 mm 3 m/s 765 mmHg 46%
    12:00 +26°C° 0.1 mm 3 m/s 765 mmHg 46%
    13:00 +26°C° 0.1 mm 4 m/s 764 mmHg 46%
    14:00 +25°C° 0.3 mm 4 m/s 764 mmHg 51%
    15:00 +23°C° 0.3 mm 5 m/s 764 mmHg 57%
    16:00 +22°C° 0.3 mm 6 m/s 764 mmHg 62%
    17:00 +21°C° 0.2 mm 6 m/s 764 mmHg 68%
    18:00 +19°C° 0.2 mm 6 m/s 765 mmHg 73%
    19:00 +17°C° 0.2 mm 6 m/s 765 mmHg 79%
    20:00 +17°C° 0.3 mm 6 m/s 766 mmHg 79%
    21:00 +16°C° 0.3 mm 6 m/s 766 mmHg 80%
    22:00 +16°C° 0.3 mm 5 m/s 766 mmHg 80%
    23:00 +16°C° 0.2 mm 5 m/s 766 mmHg 81%

    Poimâine, 25 Septembrie, Marţi

    Timp Temperatura Precipitaţii Vânt Presiune Umiditate
    00:00 +15°C° 0.2 mm 5 m/s 766 mmHg 82%
    01:00 +15°C° 0.2 mm 5 m/s 766 mmHg 82%
    02:00 +15°C° 0.1 mm 5 m/s 766 mmHg 82%
    03:00 +15°C° 0.1 mm 5 m/s 765 mmHg 81%
    04:00 +15°C° 0.1 mm 5 m/s 765 mmHg 81%
    05:00 +15°C° 0.2 mm 5 m/s 766 mmHg 80%
    06:00 +16°C° 0.2 mm 5 m/s 766 mmHg 79%
    07:00 +16°C° 0.2 mm 5 m/s 767 mmHg 78%
    08:00 +16°C° 0.4 mm 5 m/s 767 mmHg 76%
    09:00 +17°C° 0.4 mm 5 m/s 767 mmHg 74%
    10:00 +17°C° 0.4 mm 5 m/s 767 mmHg 72%
    11:00 +19°C° 0.2 mm 5 m/s 766 mmHg 67%
    12:00 +20°C° 0.2 mm 5 m/s 766 mmHg 63%
    13:00 +21°C° 0.2 mm 5 m/s 765 mmHg 58%
    14:00 +21°C° 0.1 mm 4 m/s 765 mmHg 58%
    15:00 +21°C° 0.1 mm 4 m/s 765 mmHg 58%
    16:00 +21°C° 0.1 mm 4 m/s 764 mmHg 58%
    17:00 +19°C° 0 mm 4 m/s 765 mmHg 64%
    18:00 +18°C° 0 mm 4 m/s 765 mmHg 69%
    19:00 +17°C° 0 mm 3 m/s 766 mmHg 75%
    20:00 +17°C° 0 mm 3 m/s 766 mmHg 75%
    21:00 +16°C° 0 mm 3 m/s 766 mmHg 75%
    22:00 +16°C° 0 mm 3 m/s 767 mmHg 75%
    23:00 +16°C° 0 mm 3 m/s 766 mmHg 76%

    26 Septembrie, Miercuri

    Timp Temperatura Precipitaţii Vânt Presiune Umiditate
    00:00 +15°C° 0 mm 2 m/s 766 mmHg 78%
    01:00 +15°C° 0 mm 2 m/s 766 mmHg 80%
    02:00 +14°C° 0 mm 2 m/s 765 mmHg 81%
    03:00 +14°C° 0 mm 2 m/s 765 mmHg 82%
    04:00 +13°C° 0 mm 2 m/s 765 mmHg 84%
    05:00 +14°C° 0 mm 2 m/s 765 mmHg 80%
    06:00 +15°C° 0 mm 2 m/s 766 mmHg 76%
    07:00 +16°C° 0 mm 2 m/s 766 mmHg 72%
    08:00 +18°C° 0 mm 2 m/s 766 mmHg 62%
    09:00 +21°C° 0 mm 2 m/s 766 mmHg 51%
    10:00 +25°C° 0 mm 1 m/s 766 mmHg 41%
    11:00 +25°C° 0 mm 2 m/s 765 mmHg 40%
    12:00 +25°C° 0 mm 2 m/s 764 mmHg 39%
    13:00 +25°C° 0 mm 2 m/s 764 mmHg 38%
    14:00 +25°C° 0 mm 2 m/s 763 mmHg 40%
    15:00 +24°C° 0 mm 3 m/s 763 mmHg 42%
    16:00 +24°C° 0 mm 3 m/s 763 mmHg 44%
    17:00 +21°C° 0 mm 3 m/s 763 mmHg 52%
    18:00 +19°C° 0 mm 3 m/s 764 mmHg 59%
    19:00 +18°C° 0 mm 3 m/s 764 mmHg 67%
    20:00 +17°C° 0 mm 2 m/s 765 mmHg 70%
    21:00 +17°C° 0 mm 2 m/s 765 mmHg 73%
    22:00 +16°C° 0 mm 2 m/s 766 mmHg 76%
    23:00 +16°C° 0 mm 1 m/s 765 mmHg 78%

    27 Septembrie, Joi

    Timp Temperatura Precipitaţii Vânt Presiune Umiditate
    00:00 +15°C° 0 mm 1 m/s 765 mmHg 80%
    01:00 +15°C° 0 mm 1 m/s 765 mmHg 82%
    02:00 +14°C° 0 mm 1 m/s 765 mmHg 83%
    03:00 +14°C° 0 mm 1 m/s 765 mmHg 84%
    04:00 +14°C° 0 mm 1 m/s 765 mmHg 85%
    05:00 +15°C° 0 mm 1 m/s 765 mmHg 81%
    06:00 +16°C° 0 mm 1 m/s 766 mmHg 76%
    07:00 +18°C° 0 mm 1 m/s 766 mmHg 72%
    08:00 +20°C° 0 mm 1 m/s 766 mmHg 64%
    09:00 +22°C° 0 mm 1 m/s 766 mmHg 56%
    10:00 +25°C° 0 mm 2 m/s 765 mmHg 47%
    11:00 +25°C° 0 mm 2 m/s 765 mmHg 45%
    12:00 +26°C° 0 mm 2 m/s 764 mmHg 43%
    13:00 +26°C° 0 mm 3 m/s 763 mmHg 41%
    14:00 +26°C° 0 mm 3 m/s 763 mmHg 44%
    15:00 +25°C° 0 mm 4 m/s 763 mmHg 46%
    16:00 +25°C° 0 mm 4 m/s 763 mmHg 48%
    17:00 +22°C° 0 mm 4 m/s 763 mmHg 55%
    18:00 +21°C° 0 mm 4 m/s 764 mmHg 62%
    19:00 +19°C° 0 mm 4 m/s 764 mmHg 69%
    20:00 +19°C° 0 mm 4 m/s 764 mmHg 73%
    21:00 +18°C° 0 mm 4 m/s 764 mmHg 76%
    22:00 +17°C° 0 mm 3 m/s 765 mmHg 80%
    23:00 +17°C° 0 mm 3 m/s 764 mmHg 81%

    28 Septembrie, Vineri

    Timp Temperatura Precipitaţii Vânt Presiune Umiditate
    00:00 +17°C° 0 mm 3 m/s 764 mmHg 83%
    01:00 +16°C° 0 mm 2 m/s 764 mmHg 84%
    02:00 +16°C° 0 mm 2 m/s 764 mmHg 86%
    03:00 +16°C° 0 mm 2 m/s 764 mmHg 87%
    04:00 +15°C° 0 mm 2 m/s 764 mmHg 88%
    05:00 +16°C° 0 mm 2 m/s 764 mmHg 84%
    06:00 +17°C° 0 mm 2 m/s 765 mmHg 80%
    07:00 +18°C° 0 mm 2 m/s 765 mmHg 77%
    08:00 +20°C° 0 mm 3 m/s 765 mmHg 67%
    09:00 +24°C° 0 mm 3 m/s 764 mmHg 57%
    10:00 +26°C° 0 mm 4 m/s 764 mmHg 47%
    11:00 +27°C° 0 mm 4 m/s 763 mmHg 44%
    12:00 +28°C° 0 mm 5 m/s 763 mmHg 41%
    13:00 +29°C° 0 mm 5 m/s 762 mmHg 39%
    14:00 +28°C° 0 mm 5 m/s 762 mmHg 42%
    15:00 +27°C° 0 mm 5 m/s 761 mmHg 45%
    16:00 +26°C° 0 mm 6 m/s 761 mmHg 48%
    17:00 +24°C° 0 mm 6 m/s 762 mmHg 54%
    18:00 +22°C° 0 mm 5 m/s 762 mmHg 60%
    19:00 +21°C° 0 mm 5 m/s 763 mmHg 66%
    20:00 +20°C° 0 mm 5 m/s 763 mmHg 70%
    21:00 +20°C° 0 mm 5 m/s 763 mmHg 73%
    22:00 +19°C° 0 mm 5 m/s 763 mmHg 77%
    23:00 +18°C° 0 mm 4 m/s 763 mmHg 79%
    Arată mai mult